Location: Austin
(30.3000°N, 97.7500°W)
Time: 12:24:05
(UTC-05:00)

CZ-4 R/B - Pass Details

Date: 26 May 2023
Orbit: 523 x 586 km, 97.7° (Epoch: 30 May)

Event Time Altitude Azimuth Distance (km) Brightness Sun altitude
Rises 21:13:53 0° 181° (S) 2,780 4.6 -10.1°
Reaches altitude 10° 21:16:07 10° 188° (S) 1,879 3.8 -10.5°
Maximum altitude 21:20:00 43° 261° (W) 808 2.6 -11.2°
Drops below altitude 10° 21:23:51 10° 333° (NNW) 1,858 5.0 -11.9°
Sets 21:26:03 0° 340° (NNW) 2,747 5.8 -12.3°
